User: anonymous   Login
Location: Mattawa
(46.3175°N, 78.7022°W)
Time: 15:40:14
(UTC-04:00)
Language:

ISS - Orbit

View from above orbital plane
View from above orbital plane
View from above satellite
View from above satellite

Ground track
Ground track

The orbit data is extracted from the following two-line orbital elements,

1 25544U 98067A   24150.51839255  .00024823  00000-0  43169-3 0  9995
2 25544  51.6414  47.8394 0005619 247.7631 170.0435 15.50628529455657
Epoch (UTC): 29 May 2024 12:26:29
Eccentricity: 0.0005619
inclination: 51.6414°
perigee height: 411 km
apogee height: 419 km
right ascension of ascending node: 47.8394°
argument of perigee: 247.7631°
revolutions per day: 15.50628529
mean anomaly at epoch: 170.0435°
orbit number at epoch: 45565

The dashed part of the orbit path shows where the satellite is in the earth's shadow,  

DLR